Weather in Vesele

Ukraine / Zaporizhia Region     47°00′56″N   34°53′58″E
temp.,
°C
wind,
m/s
gust,
m/s
humid.,
%
clouds,
%
prec.,
mm/h
press.,
hPa
HPBL,
m
16 october, sat
sat1600:00+9ene36546 0.0 1021113
03:00+8ene485672 0.0 1019122
06:00+8ene4961100 0.0 1018147
09:00+12e485897 0.0 1018264
12:00+17e4543100 0.0 1017630
15:00+19ene4435100 0.0 1015902
18:00+15ne2244100 0.0 101517
21:00+13e2251100 0.0 101615
17 october, sun
sun1700:00+13n3451100 0.0 101566
03:00+13nne4858100 0.0 1015198
06:00+13nne4961100 0.0 1016274
09:00+13ne5957100 0.0 1016337
12:00+16nne4549100 0.0 1016623
15:00+15n575498 0.0 1016478
18:00+13n4857100 0.0 1017345
21:00+12n485387 0.0 1017275
18 october, mon
mon1800:00+12n4767100 0.0 1018251
03:00+11nnw4769100 0.1 1018270
06:00+11nnw476695 0.0 1018305
09:00+11nnw4661100 0.0 1019379
12:00+15nnw44415 0.0 10191058
15:00+16nw6536100 0.0 10181411
18:00+11nnw344810 0.0 101965
21:00+9nw355723 0.0 102080
19 october, tue
tue1900:00+8wnw3362100 0.0 102038
03:00+9w3657100 0.0 1020130
06:00+9wsw2458100 0.0 1019113
09:00+10wsw3554100 0.0 1019234
12:00+13wnw6743100 0.0 10181894
15:00+9w3579100 1.9 1018692
18:00+8n4781100 0.4 1020990
21:00+8nnw7126345 0.5 1022642
20 october, wed
wed2000:00+5nnw512590 0.0 1025295
03:00+4nw410710 0.0 1026215
06:00+3nw49815 0.0 1028178
09:00+5nnw486425 0.0 1029558
12:00+9nnw45413 0.0 10301198
15:00+10nnw33350 0.0 10291193
18:00+7n22444 0.0 102910
21:00+5se22492 0.0 102919